����,���ϕ���(m/s),���ϕ���,�ő�u�ԕ���(m/s),�ő啗��������,�C��(��),���x(%),10���Ԉړ��ώZ�J��(mm),1���Ԉړ��ώZ�J��(mm),���J��(mm),�݌v�J��(mm)
2023-11-06T00:00:00+09:00,2.7,�쓌,5,�쓌,19.3,79.3,0,0,0,0
2023-11-06T00:01:00+09:00,2.7,�쓌,5,�쓌,19.4,79.4,0,0,0,0
2023-11-06T00:02:00+09:00,2.7,�쓌,5,�쓌,19.4,79.4,0,0,0,0
2023-11-06T00:03:00+09:00,2.7,��쓌,5,�쓌,19.3,79.3,0,0,0,0
2023-11-06T00:04:00+09:00,2.6,��쓌,5.3,��,19.5,79.5,0,0,0,0
2023-11-06T00:05:00+09:00,2.8,��쓌,6.2,��쓌,19.8,79.2,0,0,0,0
2023-11-06T00:06:00+09:00,2.7,��쓌,6.2,��쓌,19.8,78,0,0,0,0
2023-11-06T00:07:00+09:00,2.6,��쓌,6.2,��쓌,19.7,77.7,0,0,0,0
2023-11-06T00:08:00+09:00,2.6,��쓌,6.2,��쓌,19.7,77.9,0,0,0,0
2023-11-06T00:09:00+09:00,2.7,��쓌,6.2,��쓌,19.6,77.8,0,0,0,0
2023-11-06T00:10:00+09:00,2.8,��쓌,6.2,��쓌,19.7,78,0,0,0,0
2023-11-06T00:11:00+09:00,2.7,��쓌,6.2,��쓌,19.6,77.9,0,0,0,0
2023-11-06T00:12:00+09:00,2.8,��쓌,6.2,��쓌,19.6,78.1,0,0,0,0
2023-11-06T00:13:00+09:00,2.9,�쓌,6.2,��쓌,19.7,78.2,0,0,0,0
2023-11-06T00:14:00+09:00,2.8,�쓌,6.2,��쓌,19.6,77.7,0,0,0,0
2023-11-06T00:15:00+09:00,2.6,�쓌,4.9,��,19.6,78,0,0,0,0
2023-11-06T00:16:00+09:00,2.6,�쓌,4.9,��,19.6,78.1,0,0,0,0
2023-11-06T00:17:00+09:00,2.7,�쓌,4.9,��,19.7,78.1,0,0,0,0
2023-11-06T00:18:00+09:00,2.8,�쓌,4.9,��,19.7,77.9,0,0,0,0
2023-11-06T00:19:00+09:00,2.7,�쓌,4.9,��,19.6,77.8,0,0,0,0
2023-11-06T00:20:00+09:00,2.7,�쓌,4.9,��,19.6,78,0,0,0,0
2023-11-06T00:21:00+09:00,2.7,�쓌,4.9,��,19.5,78.3,0,0,0,0
2023-11-06T00:22:00+09:00,2.6,�쓌,4.9,��,19.5,78.4,0,0,0,0
2023-11-06T00:23:00+09:00,2.6,�쓌,4.9,��,19.5,78.7,0,0,0,0
2023-11-06T00:24:00+09:00,2.8,�쓌,4.9,��,19.6,78.7,0,0,0,0
2023-11-06T00:25:00+09:00,2.7,�쓌,4.7,��,19.6,78.4,0,0,0,0
2023-11-06T00:26:00+09:00,2.6,�쓌,4.7,��,19.6,78.4,0,0,0,0
2023-11-06T00:27:00+09:00,2.5,�쓌,4.5,�쓌,19.6,78.5,0,0,0,0
2023-11-06T00:28:00+09:00,2.4,�쓌,4.5,�쓌,19.6,78.5,0,0,0,0
2023-11-06T00:29:00+09:00,2.3,�쓌,4.5,�쓌,19.5,78.5,0,0,0,0
2023-11-06T00:30:00+09:00,2.3,�쓌,4.5,�쓌,19.5,78.6,0,0,0,0
2023-11-06T00:31:00+09:00,2.4,�쓌,4.7,�쓌,19.5,78.8,0,0,0,0
2023-11-06T00:32:00+09:00,2.4,�쓌,4.7,�쓌,19.5,78.8,0,0,0,0
2023-11-06T00:33:00+09:00,2.5,�쓌,4.8,��쓌,19.5,78.9,0,0,0,0
2023-11-06T00:34:00+09:00,2.5,�쓌,4.8,��쓌,19.5,78.9,0,0,0,0
2023-11-06T00:35:00+09:00,2.5,�쓌,4.8,��쓌,19.5,79.1,0,0,0,0
2023-11-06T00:36:00+09:00,2.7,�쓌,4.8,��쓌,19.4,79.1,0,0,0,0
2023-11-06T00:37:00+09:00,2.8,�쓌,4.8,��쓌,19.5,79.2,0,0,0,0
2023-11-06T00:38:00+09:00,2.9,�쓌,4.8,��쓌,19.5,79.1,0,0,0,0
2023-11-06T00:39:00+09:00,3,�쓌,4.8,��쓌,19.5,79.1,0,0,0,0
2023-11-06T00:40:00+09:00,3,�쓌,4.8,��쓌,19.5,79.1,0,0,0,0
2023-11-06T00:41:00+09:00,3,�쓌,4.8,��쓌,19.5,79,0,0,0,0
2023-11-06T00:42:00+09:00,2.9,�쓌,4.8,��쓌,19.5,79,0,0,0,0
2023-11-06T00:43:00+09:00,2.8,�쓌,4.7,��쓌,19.4,79.1,0,0,0,0
2023-11-06T00:44:00+09:00,2.7,��쓌,4.7,��쓌,19.4,79.2,0,0,0,0
2023-11-06T00:45:00+09:00,2.6,��쓌,4.7,��쓌,19.4,79.3,0,0,0,0
2023-11-06T00:46:00+09:00,2.6,��쓌,4.7,��쓌,19.5,79.4,0,0,0,0
2023-11-06T00:47:00+09:00,2.6,�쓌,4.6,�쓌,19.5,79.4,0,0,0,0
2023-11-06T00:48:00+09:00,2.5,�쓌,4.6,�쓌,19.6,79.1,0,0,0,0
2023-11-06T00:49:00+09:00,2.5,�쓌,4.3,�쓌,19.7,79,0,0,0,0
2023-11-06T00:50:00+09:00,2.5,�쓌,4.3,�쓌,19.8,78.5,0,0,0,0
2023-11-06T00:51:00+09:00,2.5,�쓌,4.6,�쓌,19.7,78,0,0,0,0
2023-11-06T00:52:00+09:00,2.5,�쓌,4.6,�쓌,19.6,78.1,0,0,0,0
2023-11-06T00:53:00+09:00,2.6,�쓌,4.6,�쓌,19.6,78.4,0,0,0,0
2023-11-06T00:54:00+09:00,2.7,�쓌,5.5,���쓌,19.5,78.6,0,0,0,0
2023-11-06T00:55:00+09:00,2.8,�쓌,5.5,���쓌,19.6,78.6,0,0,0,0
2023-11-06T00:56:00+09:00,2.9,�쓌,5.5,���쓌,19.6,78.4,0,0,0,0
2023-11-06T00:57:00+09:00,2.8,�쓌,5.5,���쓌,19.6,78.5,0,0,0,0
2023-11-06T00:58:00+09:00,2.8,�쓌,5.5,���쓌,19.6,78.5,0,0,0,0
2023-11-06T00:59:00+09:00,2.8,�쓌,5.5,���쓌,19.6,78.5,0,0,0,0
2023-11-06T01:00:00+09:00,2.8,�쓌,5.5,���쓌,19.6,78.5,0,0,0,0
2023-11-06T01:01:00+09:00,2.8,�쓌,5.5,���쓌,19.6,78.6,0,0,0,0
2023-11-06T01:02:00+09:00,2.7,�쓌,5.5,���쓌,19.5,78.6,0,0,0,0
2023-11-06T01:03:00+09:00,2.7,�쓌,5.5,���쓌,19.5,78.7,0,0,0,0
2023-11-06T01:04:00+09:00,2.6,�쓌,4.9,��쓌,19.6,78.8,0,0,0,0
2023-11-06T01:05:00+09:00,2.5,�쓌,4.9,��쓌,19.6,78.5,0,0,0,0
2023-11-06T01:06:00+09:00,2.5,�쓌,4.4,�쓌,19.6,78.5,0,0,0,0
2023-11-06T01:07:00+09:00,2.5,�쓌,4.1,�쓌,19.6,78.6,0,0,0,0
2023-11-06T01:08:00+09:00,2.5,�쓌,4.1,�쓌,19.6,78.5,0,0,0,0
2023-11-06T01:09:00+09:00,2.4,�쓌,4.1,�쓌,19.6,78.3,0,0,0,0
2023-11-06T01:10:00+09:00,2.3,�쓌,4.1,�쓌,19.5,78.3,0,0,0,0
2023-11-06T01:11:00+09:00,2.3,�쓌,4.1,�쓌,19.5,78.5,0,0,0,0
2023-11-06T01:12:00+09:00,2.3,�쓌,4.1,�쓌,19.5,78.6,0,0,0,0
2023-11-06T01:13:00+09:00,2.4,�쓌,4.1,�쓌,19.5,78.8,0,0,0,0
2023-11-06T01:14:00+09:00,2.5,�쓌,5.3,���쓌,19.6,78.8,0,0,0,0
2023-11-06T01:15:00+09:00,2.5,�쓌,5.3,���쓌,19.6,78.6,0,0,0,0
2023-11-06T01:16:00+09:00,2.6,��쓌,5.3,���쓌,19.5,78.6,0,0,0,0
2023-11-06T01:17:00+09:00,2.5,��쓌,5.3,���쓌,19.5,78.7,0,0,0,0
2023-11-06T01:18:00+09:00,2.6,��쓌,5.3,���쓌,19.5,78.8,0,0,0,0
2023-11-06T01:19:00+09:00,2.6,��쓌,5.3,���쓌,19.5,78.7,0,0,0,0
2023-11-06T01:20:00+09:00,2.6,��쓌,5.3,���쓌,19.5,78.6,0,0,0,0
2023-11-06T01:21:00+09:00,2.7,��쓌,5.3,���쓌,19.6,78.8,0,0,0,0
2023-11-06T01:22:00+09:00,2.7,�쓌,5.3,���쓌,19.5,78.6,0,0,0,0
2023-11-06T01:23:00+09:00,2.7,��쓌,5.3,���쓌,19.5,78.8,0,0,0,0
2023-11-06T01:24:00+09:00,2.5,��쓌,4.3,��쓌,19.5,78.8,0,0,0,0
2023-11-06T01:25:00+09:00,2.4,��쓌,4.3,��쓌,19.4,78.8,0,0,0,0
2023-11-06T01:26:00+09:00,2.4,��쓌,4.3,��쓌,19.4,79.1,0,0,0,0
2023-11-06T01:27:00+09:00,2.3,�쓌,4.3,��쓌,19.4,79.1,0,0,0,0
2023-11-06T01:28:00+09:00,2.2,�쓌,4.3,��쓌,19.3,79.2,0,0,0,0
2023-11-06T01:29:00+09:00,2.2,�쓌,4.4,��쓌,19.3,79.6,0,0,0,0
2023-11-06T01:30:00+09:00,2.3,�쓌,4.4,��쓌,19.4,79.5,0,0,0,0
2023-11-06T01:31:00+09:00,2.2,�쓌,4.4,��쓌,19.4,79.4,0,0,0,0
2023-11-06T01:32:00+09:00,2.1,��쓌,4.4,��쓌,19.4,79.2,0,0,0,0
2023-11-06T01:33:00+09:00,1.9,�쓌,4.4,��쓌,19.3,79.3,0,0,0,0
2023-11-06T01:34:00+09:00,2,�쓌,4.4,��쓌,19.4,79.6,0,0,0,0
2023-11-06T01:35:00+09:00,2.1,�쓌,4.4,��쓌,19.4,79.3,0,0,0,0
2023-11-06T01:36:00+09:00,2.1,�쓌,4.4,��쓌,19.4,79.1,0,0,0,0
2023-11-06T01:37:00+09:00,2.2,�쓌,4.4,��쓌,19.4,79,0,0,0,0
2023-11-06T01:38:00+09:00,2.3,�쓌,4.4,��쓌,19.5,78.9,0,0,0,0
2023-11-06T01:39:00+09:00,2.2,�쓌,4.9,���쓌,19.5,78.6,0,0,0,0
2023-11-06T01:40:00+09:00,2.2,�쓌,5.4,�쓌,19.4,78.5,0,0,0,0
2023-11-06T01:41:00+09:00,2.3,�쓌,5.4,�쓌,19.5,78.6,0,0,0,0
2023-11-06T01:42:00+09:00,2.4,�쓌,5.4,�쓌,19.5,78.4,0,0,0,0
2023-11-06T01:43:00+09:00,2.7,�쓌,5.4,�쓌,19.5,78.3,0,0,0,0
2023-11-06T01:44:00+09:00,2.7,�쓌,5.4,�쓌,19.5,78.4,0,0,0,0
2023-11-06T01:45:00+09:00,2.8,�쓌,5.4,�쓌,19.7,78.4,0,0,0,0
2023-11-06T01:46:00+09:00,2.7,�쓌,5.4,�쓌,19.7,77.7,0,0,0,0
2023-11-06T01:47:00+09:00,2.8,�쓌,5.4,�쓌,19.6,77.5,0,0,0,0
2023-11-06T01:48:00+09:00,2.7,�쓌,5.4,�쓌,19.5,77.6,0,0,0,0
2023-11-06T01:49:00+09:00,2.7,�쓌,5.4,�쓌,19.5,77.8,0,0,0,0
2023-11-06T01:50:00+09:00,2.7,��쓌,5.4,�쓌,19.5,77.9,0,0,0,0
2023-11-06T01:51:00+09:00,2.4,��쓌,5.4,�쓌,19.6,77.9,0,0,0,0
2023-11-06T01:52:00+09:00,2.2,��쓌,5.4,�쓌,19.5,77.8,0,0,0,0
2023-11-06T01:53:00+09:00,2,��쓌,5.4,�쓌,19.4,78,0,0,0,0
2023-11-06T01:54:00+09:00,1.9,��쓌,5.4,�쓌,19.5,78.2,0,0,0,0
2023-11-06T01:55:00+09:00,1.7,��쓌,3.8,��쓌,19.5,78,0,0,0,0
2023-11-06T01:56:00+09:00,1.7,��쓌,4.2,��,19.6,78,0,0,0,0
2023-11-06T01:57:00+09:00,1.7,��쓌,4.2,��,19.6,77.6,0,0,0,0
2023-11-06T01:58:00+09:00,1.8,��쓌,4.2,��,19.8,77.5,0,0,0,0
2023-11-06T01:59:00+09:00,1.8,��,4.2,��,19.8,77.1,0,0,0,0
2023-11-06T02:00:00+09:00,2.1,��,5.3,��쐼,20.2,76.6,0,0,0,0
2023-11-06T02:01:00+09:00,2.2,��,5.3,��쐼,20.4,75.6,0,0,0,0
2023-11-06T02:02:00+09:00,2.3,��,5.3,��쐼,20.2,74.7,0,0,0,0
2023-11-06T02:03:00+09:00,2.4,��,5.3,��쐼,20.1,74.7,0,0,0,0
2023-11-06T02:04:00+09:00,2.4,��,5.3,��쐼,20,74.8,0,0,0,0
2023-11-06T02:05:00+09:00,2.6,��,5.3,��쐼,20.1,75.2,0,0,0,0
2023-11-06T02:06:00+09:00,2.6,��,5.3,��쐼,20.1,74.9,0,0,0,0
2023-11-06T02:07:00+09:00,2.5,��,5.3,��쐼,19.9,74.9,0,0,0,0
2023-11-06T02:08:00+09:00,2.5,��쓌,5.3,��쐼,19.9,75.4,0,0,0,0
2023-11-06T02:09:00+09:00,2.5,��쓌,5.3,��쐼,19.7,75.8,0,0,0,0
2023-11-06T02:10:00+09:00,2.4,��쓌,5.1,��,19.7,76.1,0,0,0,0
2023-11-06T02:11:00+09:00,2.5,��쓌,5.1,��,19.7,76.5,0,0,0,0
2023-11-06T02:12:00+09:00,2.6,�쓌,5.1,��,19.7,76.7,0,0,0,0
2023-11-06T02:13:00+09:00,2.7,�쓌,5.1,��,19.7,76.9,0,0,0,0
2023-11-06T02:14:00+09:00,2.8,�쓌,5.1,��,19.7,76.8,0,0,0,0
2023-11-06T02:15:00+09:00,2.7,�쓌,4.8,�쓌,19.7,76.8,0,0,0,0
2023-11-06T02:16:00+09:00,2.8,�쓌,4.8,�쓌,19.7,76.9,0,0,0,0
2023-11-06T02:17:00+09:00,2.8,�쓌,4.8,�쓌,19.8,77,0,0,0,0
2023-11-06T02:18:00+09:00,2.7,��쓌,4.8,�쓌,19.8,76.7,0,0,0,0
2023-11-06T02:19:00+09:00,2.7,��쓌,4.8,�쓌,19.8,76.4,0,0,0,0
2023-11-06T02:20:00+09:00,2.6,��쓌,4.3,�쓌,19.7,76.6,0,0,0,0
2023-11-06T02:21:00+09:00,2.5,��쓌,4.3,�쓌,19.8,76.7,0,0,0,0
2023-11-06T02:22:00+09:00,2.5,��쓌,4.3,�쓌,20.2,76.5,0,0,0,0
2023-11-06T02:23:00+09:00,2.5,��쓌,4.3,�쓌,20.1,75.4,0,0,0,0
2023-11-06T02:24:00+09:00,2.4,��쓌,4.6,��,20.2,75.1,0,0,0,0
2023-11-06T02:25:00+09:00,2.4,��쓌,4.6,��,20.1,74.9,0,0,0,0
2023-11-06T02:26:00+09:00,2.5,��쓌,4.7,��쐼,20.3,75,0,0,0,0
2023-11-06T02:27:00+09:00,2.4,��쓌,4.7,��쐼,20.5,74.2,0,0,0,0
2023-11-06T02:28:00+09:00,2.5,��,4.7,��쐼,20.4,73.7,0,0,0,0
2023-11-06T02:29:00+09:00,2.6,��쓌,5.2,��,20.3,73.6,0,0,0,0
2023-11-06T02:30:00+09:00,2.7,��쓌,5.6,�쓌,20.4,73.7,0,0,0,0
2023-11-06T02:31:00+09:00,2.8,��쓌,5.6,�쓌,20.4,73.5,0,0,0,0
2023-11-06T02:32:00+09:00,2.9,��쓌,5.6,�쓌,20.5,73.4,0,0,0,0
2023-11-06T02:33:00+09:00,2.9,��쓌,5.6,�쓌,20,73.3,0,0,0,0
2023-11-06T02:34:00+09:00,2.9,��쓌,5.6,�쓌,19.9,74.5,0,0,0,0
2023-11-06T02:35:00+09:00,2.8,��쓌,5.6,�쓌,19.9,75.1,0,0,0,0
2023-11-06T02:36:00+09:00,2.7,��쓌,5.6,�쓌,19.9,75.3,0,0,0,0
2023-11-06T02:37:00+09:00,2.7,��쓌,5.6,�쓌,19.7,75.6,0,0,0,0
2023-11-06T02:38:00+09:00,2.6,�쓌,5.6,�쓌,19.7,76.1,0,0,0,0
2023-11-06T02:39:00+09:00,2.6,�쓌,5.6,�쓌,19.7,76.4,0,0,0,0
2023-11-06T02:40:00+09:00,2.5,�쓌,5.3,���쓌,19.7,76.6,0,0,0,0
2023-11-06T02:41:00+09:00,2.3,�쓌,4.7,�쓌,19.6,76.7,0,0,0,0
2023-11-06T02:42:00+09:00,2,�쓌,4.7,�쓌,19.6,77,0,0,0,0
2023-11-06T02:43:00+09:00,1.8,�쓌,4.4,��,19.6,77.2,0,0,0,0
2023-11-06T02:44:00+09:00,1.7,�쓌,4.1,�쓌,19.6,77.4,0,0,0,0
2023-11-06T02:45:00+09:00,1.8,�쓌,4.4,�쓌,19.7,77.4,0,0,0,0
2023-11-06T02:46:00+09:00,1.9,�쓌,4.4,�쓌,19.6,77.2,0,0,0,0
2023-11-06T02:47:00+09:00,2,�쓌,4.4,�쓌,19.6,77.3,0,0,0,0
2023-11-06T02:48:00+09:00,2,�쓌,4.4,�쓌,19.6,77.4,0,0,0,0
2023-11-06T02:49:00+09:00,1.9,�쓌,4.4,�쓌,19.6,77.4,0,0,0,0
2023-11-06T02:50:00+09:00,1.9,�쓌,4.4,�쓌,19.6,77.5,0,0,0,0
2023-11-06T02:51:00+09:00,2,��쓌,4.4,�쓌,19.8,77.3,0,0,0,0
2023-11-06T02:52:00+09:00,2.2,��쓌,4.4,�쓌,19.8,76.9,0,0,0,0
2023-11-06T02:53:00+09:00,2.3,��쓌,4.4,�쓌,19.9,76.6,0,0,0,0
2023-11-06T02:54:00+09:00,2.3,��쓌,4.4,�쓌,20,76.1,0,0,0,0
2023-11-06T02:55:00+09:00,2.1,��쓌,3.8,��쓌,20,75.6,0,0,0,0
2023-11-06T02:56:00+09:00,2,��쓌,3.8,��쓌,19.8,75.7,0,0,0,0
2023-11-06T02:57:00+09:00,2,��쓌,3.8,��쓌,19.7,76.2,0,0,0,0
2023-11-06T02:58:00+09:00,2.1,��쓌,3.8,��쓌,19.9,76.5,0,0,0,0
2023-11-06T02:59:00+09:00,2,��쓌,3.8,��쓌,20,76,0,0,0,0
2023-11-06T03:00:00+09:00,2,��쓌,3.8,��쓌,19.8,75.7,0,0,0,0
2023-11-06T03:01:00+09:00,2.1,��쓌,3.7,�쓌,19.8,76.2,0,0,0,0
2023-11-06T03:02:00+09:00,2,��쓌,3.7,�쓌,19.6,76.3,0,0,0,0
2023-11-06T03:03:00+09:00,2.1,��쓌,4.8,�쓌,19.6,76.7,0,0,0,0
2023-11-06T03:04:00+09:00,2.4,��쓌,6.4,��,19.9,77.1,0,0,0,0
2023-11-06T03:05:00+09:00,2.7,��쓌,6.6,��쐼,20.2,75.9,0,0,0,0
2023-11-06T03:06:00+09:00,2.9,��쓌,6.6,��쐼,20.4,74.9,0,0,0,0
2023-11-06T03:07:00+09:00,3,��쓌,6.6,��쐼,20.4,74.1,0,0,0,0
2023-11-06T03:08:00+09:00,3.1,��쓌,6.6,��쐼,20.5,73.6,0,0,0,0
2023-11-06T03:09:00+09:00,3.3,��쓌,6.6,��쐼,20.5,73.3,0,0,0,0
2023-11-06T03:10:00+09:00,3.6,��쓌,6.6,��쐼,20.7,72.9,0,0,0,0
2023-11-06T03:11:00+09:00,3.6,��,6.6,��쐼,20.8,72.2,0,0,0,0
2023-11-06T03:12:00+09:00,3.8,��,6.6,��쐼,20.6,71.7,0,0,0,0
2023-11-06T03:13:00+09:00,3.9,��,6.6,��쐼,20.6,72,0,0,0,0
2023-11-06T03:14:00+09:00,3.8,��,6.6,��쐼,20.7,72,0,0,0,0
2023-11-06T03:15:00+09:00,3.8,��,6.6,��쓌,20.8,71.5,0,0,0,0
2023-11-06T03:16:00+09:00,3.6,��,6.6,��쓌,20.7,71.4,0,0,0,0
2023-11-06T03:17:00+09:00,3.6,��,6.6,��쓌,20.7,71.5,0,0,0,0
2023-11-06T03:18:00+09:00,3.6,��,6.6,��쓌,20.7,71.4,0,0,0,0
2023-11-06T03:19:00+09:00,3.6,��쓌,6.6,��쓌,20.7,71.5,0,0,0,0
2023-11-06T03:20:00+09:00,3.5,��쓌,6.3,�쓌,20.7,71.6,0,0,0,0
2023-11-06T03:21:00+09:00,3.7,��쓌,8.2,��쓌,20.7,71.5,0,0,0,0
2023-11-06T03:22:00+09:00,3.9,��,8.2,��쓌,20.9,70.9,0,0,0,0
2023-11-06T03:23:00+09:00,3.8,��,8.2,��쓌,21,70.5,0,0,0,0
2023-11-06T03:24:00+09:00,3.7,��,8.2,��쓌,20.9,70.4,0,0,0,0
2023-11-06T03:25:00+09:00,3.7,��,8.2,��쓌,20.7,70.5,0,0,0,0
2023-11-06T03:26:00+09:00,3.7,��쓌,8.2,��쓌,20.4,71,0,0,0,0
2023-11-06T03:27:00+09:00,3.7,��쓌,8.2,��쓌,20.1,72.1,0,0,0,0
2023-11-06T03:28:00+09:00,3.7,��쓌,8.2,��쓌,20.2,73.3,0,0,0,0
2023-11-06T03:29:00+09:00,3.7,��쓌,8.2,��쓌,20.3,73.2,0,0,0,0
2023-11-06T03:30:00+09:00,3.6,��쓌,8.2,��쓌,20.4,72.8,0,0,0,0
2023-11-06T03:31:00+09:00,3.3,��쓌,5.5,��쓌,20.1,72.8,0,0,0,0
2023-11-06T03:32:00+09:00,3.1,��쓌,5.5,��쓌,19.8,73.7,0,0,0,0
2023-11-06T03:33:00+09:00,3,��쓌,5.5,��쓌,19.6,75,0,0,0,0
2023-11-06T03:34:00+09:00,2.9,��쓌,5.5,��쓌,19.5,76,0,0,0,0
2023-11-06T03:35:00+09:00,3,��쓌,5.5,��쓌,19.6,76.5,0,0,0,0
2023-11-06T03:36:00+09:00,3.2,��쓌,5.8,��쓌,20,76.1,0,0,0,0
2023-11-06T03:37:00+09:00,3.2,��쓌,5.8,��쓌,20,74.9,0,0,0,0
2023-11-06T03:38:00+09:00,3.1,��쓌,5.8,��쓌,19.6,75.3,0,0,0,0
2023-11-06T03:39:00+09:00,3.2,��쓌,5.8,��쓌,19.4,76.5,0,0,0,0
2023-11-06T03:40:00+09:00,3.2,��쓌,5.8,��쓌,19.4,77.4,0,0,0,0
2023-11-06T03:41:00+09:00,3.3,��쓌,5.8,��쓌,19.4,77.8,0,0,0,0
2023-11-06T03:42:00+09:00,3.5,��쓌,5.8,��쓌,19.3,78.2,0,0,0,0
2023-11-06T03:43:00+09:00,3.6,��쓌,5.8,��쓌,19.3,78.4,0,0,0,0
2023-11-06T03:44:00+09:00,3.8,��쓌,6.1,�쓌,19.6,78.5,0,0,0,0
2023-11-06T03:45:00+09:00,3.8,��쓌,6.1,�쓌,19.7,77.6,0,0,0,0
2023-11-06T03:46:00+09:00,3.8,��쓌,6.1,�쓌,19.6,77.2,0,0,0,0
2023-11-06T03:47:00+09:00,3.8,��쓌,6.1,�쓌,19.5,77.4,0,0,0,0
2023-11-06T03:48:00+09:00,4,��쓌,7.4,��,19.8,77.2,0,0,0,0
2023-11-06T03:49:00+09:00,4,��쓌,7.4,��,20,75.7,0,0,0,0
2023-11-06T03:50:00+09:00,4.1,��쓌,8.3,��,20.2,74.6,0,0,0,0
2023-11-06T03:51:00+09:00,4.2,��쓌,8.3,��,20.5,73.2,0,0,0,0
2023-11-06T03:52:00+09:00,4.1,��쓌,8.3,��,20.4,72.5,0,0,0,0
2023-11-06T03:53:00+09:00,4.2,��쓌,8.3,��,20.6,71.8,0,0,0,0
2023-11-06T03:54:00+09:00,4.1,��쓌,8.3,��,20.3,71.6,0,0,0,0
2023-11-06T03:55:00+09:00,4,��쓌,8.3,��,20.4,72,0,0,0,0
2023-11-06T03:56:00+09:00,3.9,��쓌,8.3,��,20.2,72,0,0,0,0
2023-11-06T03:57:00+09:00,3.9,��쓌,8.3,��,20.3,72.7,0,0,0,0
2023-11-06T03:58:00+09:00,3.6,��쓌,8.3,��,20.1,72.6,0,0,0,0
2023-11-06T03:59:00+09:00,3.6,��쓌,8.3,��,20,73.1,0,0,0,0
2023-11-06T04:00:00+09:00,3.5,��쓌,6.4,��쐼,20.3,72.7,0,0,0,0
2023-11-06T04:01:00+09:00,3.5,��쓌,7,��쐼,20.4,72.1,0,0,0,0
2023-11-06T04:02:00+09:00,3.5,��쓌,7,��쐼,20.7,71.2,0,0,0,0
2023-11-06T04:03:00+09:00,3.4,��쓌,7,��쐼,20.9,69.8,0,0,0,0
2023-11-06T04:04:00+09:00,3.3,��쓌,7,��쐼,20.7,69.3,0,0,0,0
2023-11-06T04:05:00+09:00,3.5,��쓌,7.4,��쓌,20.8,69.1,0,0,0,0
2023-11-06T04:06:00+09:00,3.8,��,9.2,��쓌,21.1,68.3,0,0,0,0
2023-11-06T04:07:00+09:00,4.3,��,14.5,��쓌,21.3,67.2,0,0,0,0
2023-11-06T04:08:00+09:00,4.5,��,14.5,��쓌,21.4,66.3,0,0,0,0
2023-11-06T04:09:00+09:00,4.7,��,14.5,��쓌,21.3,66,0,0,0,0
2023-11-06T04:10:00+09:00,5.1,��,14.5,��쓌,21.4,65.7,0,0,0,0
2023-11-06T04:11:00+09:00,5.3,��,14.5,��쓌,21.5,65.1,0,0,0,0
2023-11-06T04:12:00+09:00,5.5,��,14.5,��쓌,21.5,64.7,0,0,0,0
2023-11-06T04:13:00+09:00,5.6,��,14.5,��쓌,21.5,64.6,0,0,0,0
2023-11-06T04:14:00+09:00,5.9,��,14.5,��쓌,21.5,64.6,0,0,0,0
2023-11-06T04:15:00+09:00,5.9,��,14.5,��쓌,21.5,64.4,0,0,0,0
2023-11-06T04:16:00+09:00,6.2,��,14.5,��쓌,21.6,64.2,0,0,0,0
2023-11-06T04:17:00+09:00,6.2,��,13.6,��쓌,21.6,63.8,0,0,0,0
2023-11-06T04:18:00+09:00,6.6,��,13.6,��쓌,21.6,63.7,0,0,0,0
2023-11-06T04:19:00+09:00,6.8,��,13.6,��쓌,21.6,63.8,0,0,0,0
2023-11-06T04:20:00+09:00,6.4,��,13.6,��쓌,21.5,63.6,0,0,0,0
2023-11-06T04:21:00+09:00,6.4,��,13.6,��쓌,21.5,63.8,0,0,0,0
2023-11-06T04:22:00+09:00,6.4,��,13.6,��쓌,21.5,64,0,0,0,0
2023-11-06T04:23:00+09:00,6.7,��,13.6,��쓌,21.6,63.3,0,0,0,0
2023-11-06T04:24:00+09:00,6.6,��,13.6,��쓌,21.6,63.3,0,0,0,0
2023-11-06T04:25:00+09:00,6.6,��,13.6,��쓌,21.5,63.4,0,0,0,0
2023-11-06T04:26:00+09:00,6.3,��,12.9,��쓌,21.6,63,0,0,0,0
2023-11-06T04:27:00+09:00,6,��,11.8,��,21.5,63.3,0,0,0,0
2023-11-06T04:28:00+09:00,5.6,��,11.7,��,21.6,62.8,0,0,0,0
2023-11-06T04:29:00+09:00,5.3,��,10.6,��쐼,21.6,62.2,0,0,0,0
2023-11-06T04:30:00+09:00,5.4,��,10.6,��쐼,21.6,62.3,0,0,0,0
2023-11-06T04:31:00+09:00,5.5,��,10.6,��쐼,21.7,61.4,0,0,0,0
2023-11-06T04:32:00+09:00,5.4,��,10.6,��쐼,21.6,61.5,0,0,0,0
2023-11-06T04:33:00+09:00,5.2,��,9.2,��쓌,21.6,61.8,0,0,0,0
2023-11-06T04:34:00+09:00,5.1,��,9.2,��쓌,21.5,61.9,0,0,0,0
2023-11-06T04:35:00+09:00,5,��,9.2,��쓌,21.6,61.6,0,0,0,0
2023-11-06T04:36:00+09:00,4.9,��,9.2,��쓌,21.6,61.2,0,0,0,0
2023-11-06T04:37:00+09:00,4.8,��,10.5,�쐼,21.6,61.2,0,0,0,0
2023-11-06T04:38:00+09:00,4.9,��,10.5,�쐼,21.7,60.2,0,0,0,0
2023-11-06T04:39:00+09:00,5.2,��,10.5,�쐼,21.7,59.9,0,0,0,0
2023-11-06T04:40:00+09:00,5.3,��,10.5,�쐼,21.7,59.5,0,0,0,0
2023-11-06T04:41:00+09:00,5,��,10.5,�쐼,21.6,59.9,0,0,0,0
2023-11-06T04:42:00+09:00,4.9,��,10.5,�쐼,21.5,60.1,0,0,0,0
2023-11-06T04:43:00+09:00,4.6,��,10.5,�쐼,21.5,60,0,0,0,0
2023-11-06T04:44:00+09:00,4.8,��,10.5,�쐼,21.6,59.7,0,0,0,0
2023-11-06T04:45:00+09:00,4.9,��,10.5,�쐼,21.7,58.9,0,0,0,0
2023-11-06T04:46:00+09:00,4.9,��,10.5,�쐼,21.9,58.1,0,0,0,0
2023-11-06T04:47:00+09:00,4.8,��,10.4,��쓌,21.9,57.5,0,0,0,0
2023-11-06T04:48:00+09:00,4.6,��,10.4,��쓌,21.9,57.5,0,0,0,0
2023-11-06T04:49:00+09:00,4.2,��쐼,10.4,��쓌,21.6,58,0,0,0,0
2023-11-06T04:50:00+09:00,3.8,��쐼,9.5,��쐼,21.6,58.4,0,0,0,0
2023-11-06T04:51:00+09:00,3.7,��쐼,9.5,��쐼,21.7,58.2,0,0,0,0
2023-11-06T04:52:00+09:00,3.9,��쐼,9.5,��쐼,21.6,58.3,0,0,0,0
2023-11-06T04:53:00+09:00,4.3,��쐼,10.6,��쐼,21.7,57.9,0,0,0,0
2023-11-06T04:54:00+09:00,4.3,��쐼,10.6,��쐼,21.9,57.4,0,0,0,0
2023-11-06T04:55:00+09:00,4.1,��쐼,10.6,��쐼,21.8,57.5,0,0,0,0
2023-11-06T04:56:00+09:00,4,��쐼,10.6,��쐼,21.7,57.8,0,0,0,0
2023-11-06T04:57:00+09:00,4.2,��쐼,10.6,��쐼,21.8,57.6,0,0,0,0
2023-11-06T04:58:00+09:00,4.3,��쐼,10.6,��쐼,21.9,56.5,0,0,0,0
2023-11-06T04:59:00+09:00,4.5,��쐼,10.6,��쐼,21.9,56.5,0,0,0,0
2023-11-06T05:00:00+09:00,4.7,��,10.6,��쐼,21.8,56.7,0,0,0,0
2023-11-06T05:01:00+09:00,5.1,��,10.6,��쐼,21.8,56.6,0,0,0,0
2023-11-06T05:02:00+09:00,5.1,��,10.6,��쐼,22,55.8,0,0,0,0
2023-11-06T05:03:00+09:00,5,��,10,�쐼,21.9,56.1,0,0,0,0
2023-11-06T05:04:00+09:00,4.9,��,8.8,��,21.8,56.7,0,0,0,0
2023-11-06T05:05:00+09:00,5,��,8.8,��,21.8,56.5,0,0,0,0
2023-11-06T05:06:00+09:00,5.1,��,8.8,��,21.7,56.8,0,0,0,0
2023-11-06T05:07:00+09:00,5.1,��,8.8,��,21.7,57.1,0,0,0,0
2023-11-06T05:08:00+09:00,5.3,��,8.8,��,21.7,57.2,0,0,0,0
2023-11-06T05:09:00+09:00,5.2,��,8.8,��,21.7,57.3,0,0,0,0
2023-11-06T05:10:00+09:00,5.1,��쓌,8.8,��,21.7,57.3,0,0,0,0
2023-11-06T05:11:00+09:00,5,��쓌,8.6,�쓌,21.7,57.2,0,0,0,0
2023-11-06T05:12:00+09:00,5.1,��쓌,8.6,�쓌,21.8,56.8,0,0,0,0
2023-11-06T05:13:00+09:00,5,��쓌,8.6,�쓌,21.9,56.6,0,0,0,0
2023-11-06T05:14:00+09:00,5,��,9.9,��,21.9,56.3,0,0,0,0
2023-11-06T05:15:00+09:00,5,��,9.9,��,21.9,56.4,0,0,0,0
2023-11-06T05:16:00+09:00,4.7,��,9.9,��,21.7,56.6,0,0,0,0
2023-11-06T05:17:00+09:00,4.5,��,9.9,��,21.7,56.5,0,0,0,0
2023-11-06T05:18:00+09:00,4.6,��,9.9,��,21.7,56.8,0,0,0,0
2023-11-06T05:19:00+09:00,4.8,��,9.9,��,21.8,56.3,0,0,0,0
2023-11-06T05:20:00+09:00,4.8,��,9.9,��,21.7,56.4,0,0,0,0
2023-11-06T05:21:00+09:00,4.7,��,10.1,��쓌,21.7,56.5,0,0,0,0
2023-11-06T05:22:00+09:00,4.9,��,10.1,��쓌,21.8,56.1,0,0,0,0
2023-11-06T05:23:00+09:00,4.9,��,10.1,��쓌,21.9,55.8,0,0,0,0
2023-11-06T05:24:00+09:00,4.9,��,10.1,��쓌,21.9,55.4,0,0,0,0
2023-11-06T05:25:00+09:00,4.8,��,10.1,��쓌,22,54.9,0,0,0,0
2023-11-06T05:26:00+09:00,5,��,10.1,��쓌,21.9,55.3,0,0,0,0
2023-11-06T05:27:00+09:00,4.9,��,10.1,��쓌,21.9,55.1,0,0,0,0
2023-11-06T05:28:00+09:00,4.7,��,10.1,��쓌,21.8,55.4,0,0,0,0
2023-11-06T05:29:00+09:00,4.5,��,10.1,��쓌,21.9,55.5,0,0,0,0
2023-11-06T05:30:00+09:00,4.4,��,10.1,��쓌,21.9,55.3,0,0,0,0
2023-11-06T05:31:00+09:00,4.4,��,10,��쓌,21.9,55,0,0,0,0
2023-11-06T05:32:00+09:00,4.2,��,8,��쐼,21.9,54.7,0,0,0,0
2023-11-06T05:33:00+09:00,4.4,��,10.6,��,22,54.6,0,0,0,0
2023-11-06T05:34:00+09:00,4.6,��,10.6,��,22.1,54.3,0,0,0,0
2023-11-06T05:35:00+09:00,4.8,��,10.6,��,22.1,54.1,0,0,0,0
2023-11-06T05:36:00+09:00,4.8,��,10.6,��,22,54.1,0,0,0,0
2023-11-06T05:37:00+09:00,4.8,��,10.6,��,21.9,54.3,0,0,0,0
2023-11-06T05:38:00+09:00,4.8,��,10.6,��,21.9,54.5,0,0,0,0
2023-11-06T05:39:00+09:00,4.8,��,10.6,��,22,54.5,0,0,0,0
2023-11-06T05:40:00+09:00,4.8,��,10.6,��,21.9,54.8,0,0,0,0
2023-11-06T05:41:00+09:00,4.7,��,10.6,��,21.9,54.9,0,0,0,0
2023-11-06T05:42:00+09:00,4.6,��,10.6,��,22,54.7,0,0,0,0
2023-11-06T05:43:00+09:00,4.4,��,10.4,��,22,54.4,0,0,0,0
2023-11-06T05:44:00+09:00,3.8,��,10.4,��,21.9,54.4,0,0,0,0
2023-11-06T05:45:00+09:00,3.4,��,6.4,�쐼,22,54.5,0,0,0,0
2023-11-06T05:46:00+09:00,3.3,��,6.4,�쐼,21.9,54.7,0,0,0,0
2023-11-06T05:47:00+09:00,3.3,��,6.4,�쐼,21.9,55,0,0,0,0
2023-11-06T05:48:00+09:00,3.3,��,6.4,�쐼,21.8,55.2,0,0,0,0
2023-11-06T05:49:00+09:00,3.2,��,6.4,�쐼,21.9,55.1,0,0,0,0
2023-11-06T05:50:00+09:00,3,��,6.4,�쐼,21.8,55.2,0,0,0,0
2023-11-06T05:51:00+09:00,2.9,��,6.4,�쐼,21.7,55.4,0,0,0,0
2023-11-06T05:52:00+09:00,2.8,��,6.4,��쓌,21.7,55.6,0,0,0,0
2023-11-06T05:53:00+09:00,2.8,��,6.4,��쓌,21.7,55.7,0,0,0,0
2023-11-06T05:54:00+09:00,3.1,��,6.4,��쓌,21.9,55.5,0,0,0,0
2023-11-06T05:55:00+09:00,3.2,��쓌,6.5,��쓌,21.9,55.3,0,0,0,0
2023-11-06T05:56:00+09:00,3.3,��쓌,6.5,��쓌,21.9,55.3,0,0,0,0
2023-11-06T05:57:00+09:00,3.2,��쓌,6.5,��쓌,21.8,55.5,0,0,0,0
2023-11-06T05:58:00+09:00,3.3,��쓌,6.5,��쓌,21.7,55.6,0,0,0,0
2023-11-06T05:59:00+09:00,3.5,��쓌,6.5,��쓌,21.9,55.5,0,0,0,0
2023-11-06T06:00:00+09:00,3.6,��쓌,7.2,�쓌,21.8,55.5,0,0,0,0
2023-11-06T06:01:00+09:00,3.9,��쓌,9.5,��쓌,21.8,55.7,0,0,0,0
2023-11-06T06:02:00+09:00,4.3,��쓌,9.5,��쓌,21.9,55.5,0,0,0,0
2023-11-06T06:03:00+09:00,4.4,��쓌,9.5,��쓌,21.9,55.5,0,0,0,0
2023-11-06T06:04:00+09:00,4.5,��쓌,9.5,��쓌,21.9,55.6,0,0,0,0
2023-11-06T06:05:00+09:00,4.7,��쓌,9.5,��쓌,21.9,55.5,0,0,0,0
2023-11-06T06:06:00+09:00,4.7,��쓌,9.5,��쓌,21.9,55.4,0,0,0,0
2023-11-06T06:07:00+09:00,4.7,��쓌,9.5,��쓌,21.8,55.6,0,0,0,0
2023-11-06T06:08:00+09:00,4.8,��쓌,9.5,��쓌,21.7,55.8,0,0,0,0
2023-11-06T06:09:00+09:00,4.7,��쓌,9.5,��쓌,21.7,55.9,0,0,0,0
2023-11-06T06:10:00+09:00,4.8,��쓌,9.5,��쓌,21.8,55.7,0,0,0,0
2023-11-06T06:11:00+09:00,4.6,��쓌,9.5,�쓌,21.9,55.4,0,0,0,0
2023-11-06T06:12:00+09:00,4.4,��쓌,8.8,�쓌,21.8,55.5,0,0,0,0
2023-11-06T06:13:00+09:00,4.3,��쓌,8.8,�쓌,21.8,55.6,0,0,0,0
2023-11-06T06:14:00+09:00,4.2,��쓌,8.8,�쓌,21.8,55.5,0,0,0,0
2023-11-06T06:15:00+09:00,3.9,��쓌,8.1,��쓌,21.8,55.4,0,0,0,0
2023-11-06T06:16:00+09:00,3.9,��쓌,8.1,��쓌,21.8,55.5,0,0,0,0
2023-11-06T06:17:00+09:00,4.1,��쓌,8.1,��쓌,21.8,55.5,0,0,0,0
2023-11-06T06:18:00+09:00,4.2,��쓌,8.1,��쓌,21.9,55.4,0,0,0,0
2023-11-06T06:19:00+09:00,4.5,��쓌,9.3,�쓌,21.9,55.3,0,0,0,0
2023-11-06T06:20:00+09:00,4.3,��쓌,9.3,�쓌,21.8,55.4,0,0,0,0
2023-11-06T06:21:00+09:00,4.1,��쓌,9.3,�쓌,21.8,55.5,0,0,0,0
2023-11-06T06:22:00+09:00,3.9,��쓌,9.3,�쓌,21.8,55.5,0,0,0,0
2023-11-06T06:23:00+09:00,3.9,��쓌,9.3,�쓌,21.7,55.7,0,0,0,0
2023-11-06T06:24:00+09:00,3.9,��,9.3,�쓌,21.8,55.7,0,0,0,0
2023-11-06T06:25:00+09:00,3.9,��쓌,9.3,�쓌,21.7,55.7,0,0,0,0
2023-11-06T06:26:00+09:00,3.8,��,9.3,�쓌,21.7,55.7,0,0,0,0
2023-11-06T06:27:00+09:00,3.8,��,9.3,�쓌,21.8,55.6,0,0,0,0
2023-11-06T06:28:00+09:00,3.9,��,9.3,�쓌,21.9,55.3,0,0,0,0
2023-11-06T06:29:00+09:00,3.6,��,8.8,��,21.9,55.3,0,0,0,0
2023-11-06T06:30:00+09:00,3.6,��,8.8,��,21.8,55.4,0,0,0,0
2023-11-06T06:31:00+09:00,3.9,��,8.8,��,21.9,55.3,0,0,0,0
2023-11-06T06:32:00+09:00,4,��,8.8,��,21.9,55.2,0,0,0,0
2023-11-06T06:33:00+09:00,4.1,��,8.8,��,21.9,55.1,0,0,0,0
2023-11-06T06:34:00+09:00,4.4,��,9.1,��,22,55,0,0,0,0
2023-11-06T06:35:00+09:00,4.8,��,9.1,��,22,55,0,0,0,0
2023-11-06T06:36:00+09:00,4.9,��,9.1,��,22,55,0,0,0,0
2023-11-06T06:37:00+09:00,5.1,��,9.6,��쓌,22,54.9,0,0,0,0
2023-11-06T06:38:00+09:00,5.1,��,9.6,��쓌,22,54.9,0,0,0,0
2023-11-06T06:39:00+09:00,5.1,��,9.6,��쓌,22,54.7,0,0,0,0
2023-11-06T06:40:00+09:00,5.3,��,11.5,��쓌,22,54.6,0,0,0,0
2023-11-06T06:41:00+09:00,5.4,��,11.5,��쓌,22,54.7,0,0,0,0
2023-11-06T06:42:00+09:00,5.7,��,11.5,��쓌,22,54.7,0,0,0,0
2023-11-06T06:43:00+09:00,5.7,��,11.5,��쓌,22.1,54.5,0,0,0,0
2023-11-06T06:44:00+09:00,5.6,��,11.5,��쓌,22.1,54.6,0,0,0,0
2023-11-06T06:45:00+09:00,5.4,��,11.5,��쓌,22.1,54.6,0,0,0,0